GW3271 Weather Reports


Display with metric or nautical units.
time (UTC)temp
F
wind
direction
speed
MPH
gust
MPH
rain 1hr
in
rain 24hr
in
rain mn
in
humidity
%
barometer
mb
20260904000038 88 283 4.0 14.0 0.00 0.00 0.00 63 1011.5
20260903234536 89 67 4.0 13.0 0.00 0.00 0.00 62 1011.3
20260903233037 89 93 5.0 15.0 0.00 0.00 0.00 63 1011.2
20260903231535 89 86 6.0 16.0 0.00 0.00 0.00 64 1011.2
20260903230038 90 24 8.0 21.0 0.00 0.00 0.00 63 1011.1
20260903224537 93 68 8.0 18.0 0.00 0.00 0.00 56 1010.9
20260903223033 94 90 5.0 16.0 0.00 0.00 0.00 50 1010.5
20260903221536 95 32 3.0 9.0 0.00 0.00 0.00 49 1010.4
20260903220051 97 57 3.0 14.0 0.00 0.00 0.00 48 1010.4
20260903214536 96 74 5.0 13.0 0.00 0.00 0.00 49 1010.6
20260903213036 97 84 3.0 6.0 0.00 0.00 0.00 48 1010.5
20260903211533 97 311 4.0 10.0 0.00 0.00 0.00 45 1010.7
20260903210038 98 92 4.0 10.0 0.00 0.00 0.00 46 1010.9
20260903204536 99 326 1.0 9.0 0.00 0.00 0.00 46 1011.0
20260903203034 98 343 3.0 8.0 0.00 0.00 0.00 47 1011.1
20260903201537 99 256 1.0 6.0 0.00 0.00 0.00 46 1011.3
20260903200034 99 55 1.0 8.0 0.00 0.00 0.00 46 1011.3
20260903194545 100 165 1.0 5.0 0.00 0.00 0.00 43 1011.7
20260903193041 99 313 2.0 7.0 0.00 0.00 0.00 46 1012.0
20260903191532 99 187 2.0 8.0 0.00 0.00 0.00 47 1012.2
20260903190037 100 219 0.0 5.0 0.00 0.00 0.00 47 1012.3
20260903184535 97 286 1.0 5.0 0.00 0.00 0.00 49 1012.6
20260903183035 96 239 0.0 6.0 0.00 0.00 0.00 50 1012.9
20260903181533 96 56 2.0 6.0 0.00 0.00 0.00 51 1013.3
20260903180037 95 0 1.0 7.0 0.00 0.00 0.00 51 1013.3
20260903174533 96 291 1.0 6.0 0.00 0.00 0.00 50 1013.4
20260903173039 94 248 3.0 9.0 0.00 0.00 0.00 55 1013.6
20260903171535 93 269 2.0 9.0 0.00 0.00 0.00 58 1013.8
20260903170035 92 316 2.0 8.0 0.00 0.00 0.00 58 1013.9
20260903164536 93 259 2.0 8.0 0.00 0.00 0.00 59 1013.8
20260903163033 92 269 3.0 9.0 0.00 0.00 0.00 58 1014.0
20260903161538 91 242 3.0 8.0 0.00 0.00 0.00 60 1013.9
20260903160031 90 273 3.0 7.0 0.00 0.00 0.00 63 1013.8
20260903154534 90 228 3.0 8.0 0.00 0.00 0.00 64 1013.8
20260903153034 89 264 1.0 9.0 0.00 0.00 0.00 66 1013.8
20260903151534 88 214 2.0 6.0 0.00 0.00 0.00 68 1013.9
20260903150044 87 248 2.0 7.0 0.00 0.00 0.00 70 1013.9
20260903144541 87 238 1.0 9.0 0.00 0.00 0.00 71 1013.9
20260903143044 86 187 3.0 7.0 0.00 0.00 0.00 72 1013.8
20260903141536 85 236 1.0 7.0 0.00 0.00 0.00 74 1013.9
20260903140035 84 228 2.0 8.0 0.00 0.00 0.00 76 1013.9
20260903134546 83 252 2.0 7.0 0.00 0.00 0.00 78 1014.1
20260903133036 82 243 3.0 9.0 0.00 0.00 0.00 79 1014.1
20260903131535 82 225 1.0 4.0 0.00 0.00 0.00 80 1014.0
20260903130034 82 268 1.0 5.0 0.00 0.00 0.00 81 1014.0
20260903124533 81 0 1.0 5.0 0.00 0.00 0.00 82 1013.7
20260903123033 81 221 0.0 5.0 0.00 0.00 0.00 83 1013.7
20260903121535 81 238 1.0 5.0 0.00 0.00 0.00 83 1013.7
20260903120033 81 248 0.0 4.0 0.00 0.00 0.00 83 1013.6
20260903114533 81 257 1.0 7.0 0.00 0.00 0.00 84 1013.4
20260903113034 81 274 2.0 10.0 0.00 0.00 0.00 84 1013.4
20260903111531 81 240 0.0 5.0 0.00 0.00 0.00 84 1013.3
20260903110032 81 231 1.0 6.0 0.00 0.00 0.00 84 1013.2
20260903104534 81 298 1.0 5.0 0.00 0.00 0.00 84 1013.1
20260903103034 81 196 0.0 5.0 0.00 0.00 0.00 84 1013.0
20260903101534 81 262 1.0 6.0 0.00 0.00 0.00 84 1013.0
20260903100031 81 0 0.0 4.0 0.00 0.00 0.00 84 1013.0
20260903094540 81 0 1.0 6.0 0.00 0.00 0.00 84 1013.1
20260903093049 81 233 2.0 7.0 0.00 0.00 0.00 84 1013.2
20260903091535 81 210 1.0 8.0 0.00 0.00 0.00 83 1013.3
20260903090038 81 231 1.0 7.0 0.00 0.00 0.00 83 1013.3
20260903084534 81 230 1.0 10.0 0.00 0.00 0.00 83 1013.3
20260903083034 81 252 0.0 7.0 0.00 0.00 0.00 82 1013.3
20260903081542 81 188 2.0 7.0 0.00 0.00 0.00 82 1013.3
20260903080036 82 219 1.0 7.0 0.00 0.00 0.00 81 1013.3
20260903074535 82 189 2.0 7.0 0.00 0.00 0.00 80 1013.4
20260903073034 82 239 1.0 5.0 0.00 0.00 0.00 80 1013.5
20260903071537 82 281 1.0 6.0 0.00 0.00 0.00 79 1013.6
20260903070035 82 206 1.0 7.0 0.00 0.00 0.00 78 1013.7
20260903064533 83 239 2.0 6.0 0.00 0.00 0.00 77 1013.7
20260903063034 83 0 1.0 7.0 0.00 0.00 0.00 76 1013.9
20260903061534 83 276 3.0 7.0 0.00 0.00 0.00 74 1013.9
20260903060037 84 0 1.0 5.0 0.00 0.00 0.00 71 1013.9
20260903054535 84 134 1.0 5.0 0.00 0.00 0.00 69 1013.9
20260903053037 84 262 2.0 11.0 0.00 0.00 0.00 67 1013.9
20260903051538 85 176 1.0 6.0 0.00 0.00 0.00 66 1013.7
20260903050037 85 44 1.0 9.0 0.00 0.00 0.00 66 1013.8
20260903044536 85 57 2.0 9.0 0.00 0.00 0.00 67 1013.8
20260903043036 84 54 1.0 11.0 0.00 0.00 0.00 67 1013.6
20260903041535 84 72 3.0 9.0 0.00 0.00 0.00 69 1013.5
20260903040036 85 53 4.0 9.0 0.00 0.00 0.00 69 1013.3
20260903034533 85 67 4.0 12.0 0.00 0.00 0.00 67 1013.2
20260903033035 86 104 6.0 15.0 0.00 0.00 0.00 63 1013.3
20260903031539 88 79 3.0 13.0 0.00 0.00 0.00 59 1013.3
20260903030033 89 75 2.0 6.0 0.00 0.00 0.00 58 1012.9
20260903024534 89 82 0.0 9.0 0.00 0.00 0.00 58 1012.5
20260903023055 90 74 1.0 4.0 0.00 0.00 0.00 56 1012.1
20260903021543 90 63 2.0 4.0 0.00 0.00 0.00 54 1012.0
20260903020036 91 77 0.0 3.0 0.00 0.00 0.00 53 1011.4
20260903014534 91 65 0.0 4.0 0.00 0.00 0.00 52 1011.3
20260903013034 92 53 1.0 5.0 0.00 0.00 0.00 51 1011.2
20260903011532 92 104 1.0 6.0 0.00 0.00 0.00 51 1011.3
20260903010033 92 123 1.0 6.0 0.00 0.00 0.00 50 1011.2
20260903004534 93 59 1.0 11.0 0.00 0.00 0.00 49 1011.3
20260903003034 94 62 2.0 8.0 0.00 0.00 0.00 47 1011.3
20260903001535 95 51 2.0 7.0 0.00 0.00 0.00 46 1011.2